Location: Chicago
(41.8500°N, 87.6500°W)
Time: 06:34:12
(UTC-06:00)

ISS - Visible Passes

Search period start: 06 March 2015 00:00
Search period end: 16 March 2015 01:00
Orbit: 396 x 408 km, 51.6° (Epoch: 06 March)

Date Brightness Start Highest point End Pass type
(mag) Time Alt. Az. Time Alt. Az. Time Alt. Az.
08 Mar -0.2 06:22:16 10° SSE 06:23:27 12° SE 06:24:45 10° ESE visible
10 Mar -1.4 06:10:55 10° SSW 06:13:40 26° SE 06:16:28 10° ENE visible
11 Mar -0.6 05:19:24 11° SSE 05:20:48 14° SE 05:22:39 10° E visible
12 Mar -3.0 06:01:34 17° SW 06:03:52 64° SE 06:07:04 10° ENE visible
13 Mar -1.9 05:10:55 31° SE 05:10:55 31° SE 05:13:48 10° ENE visible
14 Mar -3.2 05:52:44 30° W 05:54:03 57° NNW 05:57:15 10° NE visible
15 Mar -2.2 05:01:49 43° ENE 05:01:49 43° ENE 05:04:08 10° ENE visible
15 Mar -1.6 06:35:01 10° WNW 06:37:37 22° NNW 06:40:13 10° NE visible
